FW1318 Weather Reports


time (UTC)temp
C
wind
direction
speed
KPH
gust
KPH
rain 1hr
cm
rain 24hr
cm
rain mn
cm
humidity
%
barometer
mb
20260906040137 31 0 0.0 0.0 0.00 0.00 0.00 70 1013.8
20260906035554 31 0 0.0 0.0 0.00 0.00 0.00 70 1013.8
20260906035057 31 0 0.0 0.0 0.00 0.00 0.00 69 1013.8
20260906034607 31 0 0.0 0.0 0.00 0.00 0.00 68 1013.8
20260906034052 31 0 0.0 0.0 0.00 0.00 0.00 68 1013.7
20260906033552 31 0 0.0 0.0 0.00 0.00 0.00 68 1013.7
20260906033104 31 0 0.0 0.0 0.00 0.00 0.00 67 1013.6
20260906032552 31 0 0.0 0.0 0.00 0.00 0.00 66 1013.8
20260906032052 31 0 0.0 0.0 0.00 0.00 0.00 66 1013.5
20260906031602 31 0 0.0 0.0 0.00 0.00 0.00 66 1013.5
20260906031055 31 0 0.0 0.0 0.00 0.00 0.00 65 1013.4
20260906030552 31 0 0.0 0.0 0.00 0.00 0.00 65 1013.5
20260906030100 32 0 0.0 0.0 0.00 0.00 0.00 64 1013.5
20260906025552 31 0 0.0 0.0 0.00 0.00 0.00 63 1013.3
20260906025053 31 0 0.0 0.0 0.00 0.00 0.00 63 1013.4
20260906024604 31 0 0.0 0.0 0.00 0.00 0.00 63 1013.1
20260906024052 31 0 0.0 0.0 0.00 0.00 0.00 62 1013.1
20260906023552 31 0 0.0 0.0 0.00 0.00 0.00 61 1013.1
20260906023058 31 0 0.0 0.0 0.00 0.00 0.00 61 1013.0
20260906022554 31 0 0.0 0.0 0.00 0.00 0.00 61 1013.0
20260906022053 31 0 0.0 0.0 0.00 0.00 0.00 62 1012.9
20260906021609 31 0 0.0 0.0 0.00 0.00 0.00 60 1013.0
20260906021052 31 0 0.0 0.0 0.00 0.00 0.00 59 1012.9
20260906020553 31 0 0.0 0.0 0.00 0.00 0.00 59 1012.9
20260906020107 31 0 0.0 0.0 0.00 0.00 0.00 58 1012.8
20260906015555 31 0 0.0 0.0 0.00 0.00 0.00 58 1012.8
20260906015052 31 0 0.0 0.0 0.00 0.00 0.00 59 1012.7
20260906014603 31 0 0.0 0.0 0.00 0.00 0.00 58 1012.7
20260906014052 31 0 0.0 0.0 0.00 0.00 0.00 57 1012.7
20260906013552 32 0 0.0 0.0 0.00 0.00 0.00 57 1012.4
20260906013104 32 0 0.0 0.0 0.00 0.00 0.00 56 1012.4
20260906012557 32 0 0.0 0.0 0.00 0.00 0.00 56 1012.3
20260906012052 32 0 0.0 0.0 0.00 0.00 0.00 56 1012.3
20260906011603 32 0 0.0 0.0 0.00 0.00 0.00 55 1012.3
20260906011056 32 0 0.0 0.0 0.00 0.00 0.00 55 1012.1
20260906010552 32 0 0.0 0.0 0.00 0.00 0.00 54 1012.1
20260906010109 33 0 0.0 0.0 0.00 0.00 0.00 54 1012.0
20260906005553 33 0 0.0 0.0 0.00 0.00 0.00 53 1011.9
20260906005053 33 0 0.0 0.0 0.00 0.00 0.00 53 1011.9
20260906004618 33 0 0.0 0.0 0.00 0.00 0.00 52 1012.0
20260906004054 33 0 0.0 0.0 0.00 0.00 0.00 51 1011.9
20260906003554 34 0 0.0 0.0 0.00 0.00 0.00 51 1011.9
20260906003111 34 0 0.0 0.0 0.00 0.00 0.00 50 1011.9
20260906002553 35 0 0.0 0.0 0.00 0.00 0.00 50 1012.0
20260906002057 35 0 0.0 0.0 0.00 0.00 0.00 49 1011.9
20260906001617 35 0 0.0 0.0 0.00 0.00 0.00 48 1012.0
20260906001053 35 0 0.0 0.0 0.00 0.00 0.00 47 1012.0
20260906000556 36 0 0.0 0.0 0.00 0.00 0.00 48 1011.9
20260906000108 36 0 0.0 0.0 0.00 0.00 0.00 48 1011.9
20260905235553 36 0 0.0 0.0 0.00 0.00 0.00 47 1011.7
20260905235053 36 0 0.0 0.0 0.00 0.00 0.00 47 1012.1
20260905234602 36 0 0.0 0.0 0.00 0.00 0.00 48 1012.0
20260905234054 36 0 0.0 0.0 0.00 0.00 0.00 47 1012.1
20260905233555 36 0 0.0 0.0 0.00 0.00 0.00 47 1012.0
20260905233112 36 0 0.0 0.0 0.00 0.00 0.00 45 1012.1
20260905232555 36 0 0.0 1.6 0.00 0.00 0.00 45 1012.0
20260905232053 37 0 0.0 1.6 0.00 0.00 0.00 44 1012.2
20260905231603 37 0 0.0 1.6 0.00 0.00 0.00 43 1012.0
20260905231057 37 0 0.0 1.6 0.00 0.00 0.00 44 1012.1
20260905230554 37 0 0.0 0.0 0.00 0.00 0.00 42 1012.2
20260905230059 37 0 0.0 0.0 0.00 0.00 0.00 42 1012.1
20260905225551 38 0 0.0 0.0 0.00 0.00 0.00 41 1012.0
20260905225054 38 0 0.0 0.0 0.00 0.00 0.00 40 1011.9
20260905224609 38 0 0.0 0.0 0.00 0.00 0.00 41 1012.0
20260905224054 38 0 0.0 0.0 0.00 0.00 0.00 40 1011.8
20260905223553 38 0 0.0 0.0 0.00 0.00 0.00 42 1011.8
20260905223104 38 0 0.0 0.0 0.00 0.00 0.00 43 1011.9
20260905222553 38 0 0.0 1.6 0.00 0.00 0.00 43 1011.9
20260905222054 38 0 0.0 1.6 0.00 0.00 0.00 43 1012.0
20260905221603 38 0 0.0 1.6 0.00 0.00 0.00 44 1011.9
20260905221053 38 0 0.0 1.6 0.00 0.00 0.00 43 1011.9
20260905220553 38 0 0.0 0.0 0.00 0.00 0.00 43 1011.9
20260905220104 38 0 0.0 0.0 0.00 0.00 0.00 42 1011.9
20260905215554 38 0 0.0 1.6 0.00 0.00 0.00 43 1012.0
20260905215054 38 0 0.0 1.6 0.00 0.00 0.00 43 1011.9
20260905214603 38 0 0.0 8.0 0.00 0.00 0.00 43 1012.0
20260905214053 38 0 0.0 8.0 0.00 0.00 0.00 44 1011.8
20260905213551 38 0 0.0 6.4 0.00 0.00 0.00 43 1011.8
20260905213109 38 69 0.0 9.7 0.00 0.00 0.00 45 1011.8
20260905212555 37 0 0.0 9.7 0.00 0.00 0.00 45 1012.0
20260905212052 37 79 1.6 9.7 0.00 0.00 0.00 44 1012.0
20260905211559 37 72 3.2 11.3 0.00 0.00 0.00 43 1012.0
20260905211053 38 63 1.6 11.3 0.00 0.00 0.00 42 1012.1
20260905210553 38 0 1.6 11.3 0.00 0.00 0.00 41 1012.0
20260905210113 39 0 0.0 6.4 0.00 0.00 0.00 39 1012.0
20260905205552 40 0 0.0 3.2 0.00 0.00 0.00 37 1012.2
20260905205053 40 0 0.0 4.8 0.00 0.00 0.00 36 1011.9
20260905204604 40 0 0.0 4.8 0.00 0.00 0.00 37 1011.9
20260905204055 40 0 0.0 4.8 0.00 0.00 0.00 35 1012.1
20260905203555 40 0 0.0 1.6 0.00 0.00 0.00 38 1011.9
20260905203059 40 0 0.0 1.6 0.00 0.00 0.00 37 1012.2
20260905202552 40 0 0.0 4.8 0.00 0.00 0.00 35 1012.1
20260905202052 40 0 0.0 4.8 0.00 0.00 0.00 36 1012.3
20260905201605 40 0 0.0 6.4 0.00 0.00 0.00 37 1012.3
20260905201052 40 0 0.0 6.4 0.00 0.00 0.00 36 1012.4
20260905200552 40 47 0.0 3.2 0.00 0.00 0.00 37 1012.3
20260905200135 40 0 0.0 4.8 0.00 0.00 0.00 38 1012.3
20260905195555 40 77 0.0 4.8 0.00 0.00 0.00 38 1012.3
20260905195052 40 0 0.0 6.4 0.00 0.00 0.00 38 1012.5
20260905194616 39 0 0.0 6.4 0.00 0.00 0.00 39 1012.7
20260905194053 39 0 0.0 11.3 0.00 0.00 0.00 40 1012.9
20260905193551 39 75 0.0 12.9 0.00 0.00 0.00 39 1013.0
20260905193100 39 58 1.6 12.9 0.00 0.00 0.00 39 1013.1
20260905192553 38 0 0.0 8.0 0.00 0.00 0.00 39 1013.1
20260905192056 38 60 0.0 8.0 0.00 0.00 0.00 40 1013.1
20260905191602 38 0 0.0 8.0 0.00 0.00 0.00 38 1013.1
20260905191055 39 0 0.0 6.4 0.00 0.00 0.00 39 1013.3
20260905190553 39 0 0.0 6.4 0.00 0.00 0.00 37 1013.2
20260905185551 40 0 0.0 6.4 0.00 0.00 0.00 39 1013.3
20260905185055 39 0 0.0 8.0 0.00 0.00 0.00 41 1013.3
20260905184611 39 0 0.0 8.0 0.00 0.00 0.00 39 1013.4
20260905184052 39 0 0.0 3.2 0.00 0.00 0.00 41 1013.5
20260905183554 39 0 0.0 1.6 0.00 0.00 0.00 41 1013.5
20260905183112 39 0 0.0 6.4 0.00 0.00 0.00 42 1013.6
20260905182552 38 0 0.0 6.4 0.00 0.00 0.00 43 1013.6
20260905182054 38 68 0.0 9.7 0.00 0.00 0.00 43 1013.5
20260905181601 38 0 0.0 9.7 0.00 0.00 0.00 43 1013.6
20260905181052 38 0 1.6 9.7 0.00 0.00 0.00 42 1013.6
20260905180552 38 0 0.0 9.7 0.00 0.00 0.00 43 1013.7
20260905175553 38 0 0.0 4.8 0.00 0.00 0.00 44 1013.9
20260905175052 38 0 0.0 8.0 0.00 0.00 0.00 45 1013.8
20260905174602 38 0 0.0 8.0 0.00 0.00 0.00 46 1013.8
20260905174056 38 0 0.0 0.0 0.00 0.00 0.00 47 1013.9
20260905173554 38 0 0.0 3.2 0.00 0.00 0.00 45 1013.9
20260905173103 37 0 0.0 3.2 0.00 0.00 0.00 47 1014.1
20260905172552 37 0 0.0 8.0 0.00 0.00 0.00 46 1014.1
20260905172052 37 0 1.6 8.0 0.00 0.00 0.00 48 1014.3
20260905171607 37 0 0.0 6.4 0.00 0.00 0.00 47 1014.3
20260905171053 37 72 0.0 6.4 0.00 0.00 0.00 46 1014.4
20260905170553 37 0 0.0 4.8 0.00 0.00 0.00 47 1014.3
20260905170101 37 0 0.0 4.8 0.00 0.00 0.00 47 1014.4
20260905165552 37 0 0.0 0.0 0.00 0.00 0.00 46 1014.4
20260905165054 37 0 0.0 0.0 0.00 0.00 0.00 47 1014.5
20260905164605 37 0 0.0 0.0 0.00 0.00 0.00 50 1014.5
20260905164053 36 0 0.0 4.8 0.00 0.00 0.00 49 1014.6
20260905163552 36 0 0.0 4.8 0.00 0.00 0.00 49 1014.6
20260905163104 36 0 0.0 9.7 0.00 0.00 0.00 50 1014.7
20260905162552 36 0 1.6 9.7 0.00 0.00 0.00 50 1014.6
20260905162051 36 0 0.0 1.6 0.00 0.00 0.00 51 1014.6
20260905161601 36 0 0.0 0.0 0.00 0.00 0.00 51 1014.7
20260905161052 36 0 0.0 0.0 0.00 0.00 0.00 54 1014.7
20260905160554 35 0 0.0 1.6 0.00 0.00 0.00 54 1014.7
20260905160106 35 0 0.0 1.6 0.00 0.00 0.00 53 1014.7
20260905155553 35 0 0.0 8.0 0.00 0.00 0.00 55 1014.8
20260905155054 35 0 0.0 9.7 0.00 0.00 0.00 53 1014.9
20260905154602 35 77 0.0 14.5 0.00 0.00 0.00 54 1014.8
20260905154054 34 0 1.6 14.5 0.00 0.00 0.00 54 1014.9
20260905153552 34 101 0.0 8.0 0.00 0.00 0.00 55 1014.9
20260905153102 34 0 0.0 8.0 0.00 0.00 0.00 55 1014.9
20260905152552 33 0 0.0 9.7 0.00 0.00 0.00 56 1015.0
20260905152052 33 0 0.0 9.7 0.00 0.00 0.00 57 1014.9
20260905151602 33 56 0.0 8.0 0.00 0.00 0.00 56 1015.0
20260905151053 33 0 0.0 0.0 0.00 0.00 0.00 61 1014.9
20260905150553 33 0 0.0 0.0 0.00 0.00 0.00 61 1015.0
20260905150106 33 0 0.0 0.0 0.00 0.00 0.00 62 1014.9
20260905145555 32 0 0.0 0.0 0.00 0.00 0.00 63 1014.9
20260905145054 32 0 0.0 0.0 0.00 0.00 0.00 63 1014.9
20260905144604 32 0 0.0 0.0 0.00 0.00 0.00 64 1014.9
20260905144054 32 0 0.0 0.0 0.00 0.00 0.00 65 1014.9
20260905143554 31 0 0.0 0.0 0.00 0.00 0.00 66 1014.7
20260905143105 31 0 0.0 0.0 0.00 0.00 0.00 65 1014.8
20260905142558 31 0 0.0 0.0 0.00 0.00 0.00 66 1014.7
20260905142055 31 0 0.0 0.0 0.00 0.00 0.00 66 1014.8
20260905141557 30 0 0.0 0.0 0.00 0.00 0.00 68 1015.0
20260905141054 30 0 0.0 0.0 0.00 0.00 0.00 68 1015.0
20260905140557 30 0 0.0 0.0 0.00 0.00 0.00 68 1014.9
20260905140105 30 0 0.0 0.0 0.00 0.00 0.00 67 1014.9
20260905135554 30 0 0.0 0.0 0.00 0.00 0.00 68 1014.7
20260905135054 30 0 0.0 0.0 0.00 0.00 0.00 69 1014.8
20260905134611 30 0 0.0 0.0 0.00 0.00 0.00 70 1014.7
20260905134054 30 0 0.0 0.0 0.00 0.00 0.00 69 1014.7
20260905133554 30 0 0.0 0.0 0.00 0.00 0.00 70 1014.7
20260905133056 30 0 0.0 0.0 0.00 0.00 0.00 70 1014.5
20260905132554 29 0 0.0 0.0 0.00 0.00 0.00 72 1014.4
20260905132055 29 0 0.0 0.0 0.00 0.00 0.00 73 1014.5
20260905131611 28 0 0.0 0.0 0.00 0.00 0.00 73 1014.5
20260905131053 28 0 0.0 0.0 0.00 0.00 0.00 74 1014.5
20260905130558 28 0 0.0 0.0 0.00 0.00 0.00 75 1014.6
20260905125559 27 0 0.0 0.0 0.00 0.00 0.00 78 1014.4
20260905125054 27 0 0.0 0.0 0.00 0.00 0.00 79 1014.5
20260905124605 27 0 0.0 0.0 0.00 0.00 0.00 80 1014.4
20260905124053 26 0 0.0 0.0 0.00 0.00 0.00 81 1014.3
20260905123553 26 0 0.0 0.0 0.00 0.00 0.00 82 1014.3
20260905123108 26 0 0.0 0.0 0.00 0.00 0.00 83 1014.2
20260905122553 25 0 0.0 0.0 0.00 0.00 0.00 85 1014.1
20260905122057 25 0 0.0 0.0 0.00 0.00 0.00 86 1014.2
20260905121603 25 0 0.0 0.0 0.00 0.00 0.00 87 1014.3
20260905121054 25 0 0.0 0.0 0.00 0.00 0.00 88 1014.1
20260905120555 25 0 0.0 0.0 0.00 0.00 0.00 88 1014.1
20260905120100 25 0 0.0 0.0 0.00 0.00 0.00 88 1014.0
20260905115553 25 0 0.0 0.0 0.00 0.00 0.00 88 1013.9
20260905115053 25 0 0.0 0.0 0.00 0.00 0.00 88 1013.9
20260905114609 25 0 0.0 0.0 0.00 0.00 0.00 89 1013.9
20260905114052 25 0 0.0 0.0 0.00 0.00 0.00 89 1013.9
20260905113553 25 0 0.0 0.0 0.00 0.00 0.00 89 1013.8
20260905113108 25 0 0.0 0.0 0.00 0.00 0.00 89 1013.8
20260905112552 25 0 0.0 0.0 0.00 0.00 0.00 89 1013.7
20260905112056 25 0 0.0 0.0 0.00 0.00 0.00 89 1013.6
20260905111613 25 0 0.0 0.0 0.00 0.00 0.00 88 1013.8
20260905111052 25 0 0.0 0.0 0.00 0.00 0.00 88 1013.7
20260905110554 25 0 0.0 0.0 0.00 0.00 0.00 87 1013.6
20260905110104 25 0 0.0 0.0 0.00 0.00 0.00 87 1013.5
20260905105553 25 0 0.0 0.0 0.00 0.00 0.00 87 1013.5
20260905105053 25 0 0.0 0.0 0.00 0.00 0.00 87 1013.5
20260905104603 25 0 0.0 0.0 0.00 0.00 0.00 86 1013.6
20260905104056 25 0 0.0 0.0 0.00 0.00 0.00 85 1013.6
20260905103552 26 0 0.0 0.0 0.00 0.00 0.00 85 1013.7
20260905103100 26 0 0.0 0.0 0.00 0.00 0.00 84 1013.6
20260905102553 26 0 0.0 0.0 0.00 0.00 0.00 84 1013.6
20260905102053 26 0 0.0 0.0 0.00 0.00 0.00 84 1013.6
20260905101602 26 0 0.0 0.0 0.00 0.00 0.00 84 1013.7
20260905101051 26 0 0.0 0.0 0.00 0.00 0.00 84 1013.7
20260905100557 26 0 0.0 0.0 0.00 0.00 0.00 84 1013.7
20260905100107 26 0 0.0 0.0 0.00 0.00 0.00 84 1013.8
20260905095552 26 0 0.0 0.0 0.00 0.00 0.00 84 1013.8
20260905095053 26 0 0.0 0.0 0.00 0.00 0.00 84 1013.7
20260905094612 26 0 0.0 0.0 0.00 0.00 0.00 83 1013.7
20260905094056 26 0 0.0 0.0 0.00 0.00 0.00 83 1013.6
20260905093552 26 0 0.0 0.0 0.00 0.00 0.00 82 1013.6
20260905093101 26 0 0.0 0.0 0.00 0.00 0.00 82 1013.6
20260905092551 26 0 0.0 0.0 0.00 0.00 0.00 81 1013.7
20260905092052 26 0 0.0 0.0 0.00 0.00 0.00 81 1013.7
20260905091606 26 0 0.0 0.0 0.00 0.00 0.00 81 1013.8
20260905091053 26 0 0.0 0.0 0.00 0.00 0.00 81 1013.7
20260905090552 26 0 0.0 0.0 0.00 0.00 0.00 82 1013.6
20260905090103 26 0 0.0 0.0 0.00 0.00 0.00 82 1013.6
20260905085553 26 0 0.0 0.0 0.00 0.00 0.00 82 1013.7
20260905085056 26 0 0.0 0.0 0.00 0.00 0.00 82 1013.5
20260905084607 26 0 0.0 0.0 0.00 0.00 0.00 82 1013.6
20260905084053 26 0 0.0 0.0 0.00 0.00 0.00 82 1013.5
20260905083553 26 0 0.0 0.0 0.00 0.00 0.00 82 1013.6
20260905083058 26 0 0.0 0.0 0.00 0.00 0.00 82 1013.7
20260905082552 26 0 0.0 0.0 0.00 0.00 0.00 82 1013.6
20260905082056 26 0 0.0 0.0 0.00 0.00 0.00 81 1013.8
20260905081608 26 0 0.0 0.0 0.00 0.00 0.00 81 1013.9
20260905081051 26 0 0.0 0.0 0.00 0.00 0.00 81 1013.9
20260905080553 26 0 0.0 0.0 0.00 0.00 0.00 81 1013.9
20260905080107 26 0 0.0 0.0 0.00 0.00 0.00 81 1013.9
20260905075555 27 0 0.0 0.0 0.00 0.00 0.00 81 1013.9
20260905075053 27 0 0.0 0.0 0.00 0.00 0.00 81 1014.0
20260905074604 27 0 0.0 0.0 0.00 0.00 0.00 80 1013.9
20260905074053 27 0 0.0 0.0 0.00 0.00 0.00 80 1014.1
20260905073554 27 0 0.0 0.0 0.00 0.00 0.00 79 1014.0
20260905073100 27 0 0.0 0.0 0.00 0.00 0.00 79 1014.1
20260905072552 27 0 0.0 0.0 0.00 0.00 0.00 79 1014.1
20260905072051 27 0 0.0 0.0 0.00 0.00 0.00 79 1014.1
20260905071603 27 0 0.0 0.0 0.00 0.00 0.00 79 1014.0
20260905071059 27 0 0.0 0.0 0.00 0.00 0.00 79 1014.1
20260905070555 27 0 0.0 0.0 0.00 0.00 0.00 79 1014.2
20260905070105 27 0 0.0 0.0 0.00 0.00 0.00 79 1014.3
20260905065557 26 0 0.0 0.0 0.00 0.00 0.00 79 1014.3
20260905065052 27 0 0.0 0.0 0.00 0.00 0.00 79 1014.3
20260905064604 27 0 0.0 0.0 0.00 0.00 0.00 78 1014.1
20260905064051 27 0 0.0 0.0 0.00 0.00 0.00 78 1014.0
20260905063551 27 0 0.0 0.0 0.00 0.00 0.00 78 1014.1
20260905063112 27 0 0.0 0.0 0.00 0.00 0.00 77 1014.0
20260905062555 27 0 0.0 0.0 0.00 0.00 0.00 77 1014.1
20260905062052 27 0 0.0 0.0 0.00 0.00 0.00 77 1014.2
20260905061610 27 0 0.0 0.0 0.00 0.00 0.00 76 1014.2
20260905061055 27 0 0.0 0.0 0.00 0.00 0.00 76 1014.3
20260905060554 27 0 0.0 0.0 0.00 0.00 0.00 75 1014.1
20260905060059 27 0 0.0 0.0 0.00 0.00 0.00 75 1014.3
20260905055551 27 0 0.0 0.0 0.00 0.00 0.00 75 1014.1
20260905055052 27 0 0.0 0.0 0.00 0.00 0.00 75 1014.1
20260905054601 27 0 0.0 0.0 0.00 0.00 0.00 74 1014.1
20260905054052 27 0 0.0 0.0 0.00 0.00 0.00 74 1014.2
20260905053553 27 0 0.0 0.0 0.00 0.00 0.00 74 1014.4
20260905053058 28 0 0.0 0.0 0.00 0.00 0.00 74 1014.3
20260905052553 28 0 0.0 0.0 0.00 0.00 0.00 73 1014.4
20260905052053 28 0 0.0 0.0 0.00 0.00 0.00 73 1014.4
20260905051556 28 0 0.0 0.0 0.00 0.00 0.00 72 1014.4
20260905051053 28 0 0.0 0.0 0.00 0.00 0.00 72 1014.4
20260905050552 28 0 0.0 0.0 0.00 0.00 0.00 72 1014.3
20260905050106 28 0 0.0 0.0 0.00 0.00 0.00 73 1014.2
20260905045558 28 0 0.0 0.0 0.00 0.00 0.00 73 1014.1
20260905045052 28 0 0.0 0.0 0.00 0.00 0.00 73 1014.1
20260905044603 28 0 0.0 0.0 0.00 0.00 0.00 73 1014.1
20260905044057 28 0 0.0 0.0 0.00 0.00 0.00 72 1014.1
20260905043555 28 0 0.0 0.0 0.00 0.00 0.00 71 1014.1
20260905043126 28 0 0.0 0.0 0.00 0.00 0.00 71 1014.2
20260905042555 29 0 0.0 0.0 0.00 0.00 0.00 70 1014.2
20260905042052 29 0 0.0 0.0 0.00 0.00 0.00 70 1014.1
20260905041602 29 0 0.0 0.0 0.00 0.00 0.00 69 1014.0
20260905041053 29 0 0.0 0.0 0.00 0.00 0.00 68 1014.0
20260905040552 29 0 0.0 0.0 0.00 0.00 0.00 68 1014.0